Location: Unspecified
(0.0000°N, 0.0000°E)
Time: 00:40:35
(UTC+00:00)

Transit 2A Rocket - All Passes

Search period start: 26 May 2016 00:00
Search period end: 05 June 2016 00:00
Orbit: 585 x 920 km, 66.7° (Epoch: 25 May)

Date Brightness Start Highest point End Pass type
(mag) Time Alt. Az. Time Alt. Az. Time Alt. Az.
26 May - 05:03:54 10° NE 05:06:35 13° ENE 05:09:13 10° E visible
26 May - 06:43:29 10° NW 06:49:08 47° WSW 06:54:25 10° S daylight
26 May - 17:32:06 10° SSE 17:35:48 26° ESE 17:39:43 10° NE daylight
26 May - 19:15:40 10° W 19:18:10 14° WNW 19:20:45 10° NW visible
27 May - 06:00:57 10° NNW 06:06:55 86° ENE 06:12:26 10° SSE daylight
27 May - 16:52:19 10° SE 16:53:38 11° ESE 16:54:58 10° E daylight
27 May - 18:31:49 10° SW 18:35:49 32° WNW 18:40:08 10° N visible
28 May - 05:19:04 10° N 05:24:39 42° ENE 05:29:52 10° SE visible
28 May - 07:03:58 10° WNW 07:06:54 14° WSW 07:09:46 10° SW daylight
28 May - 17:49:05 10° SSW 17:53:33 75° WNW 17:58:24 10° NNE daylight
29 May - 04:37:54 10° NNE 04:42:19 22° ENE 04:46:31 10° ESE visible
29 May - 06:19:45 10° NW 06:24:44 29° WSW 06:29:25 10° SSW daylight
29 May - 17:07:04 10° S 17:11:20 46° ESE 17:15:57 10° NE daylight
30 May - 03:59:32 10° ENE 03:59:56 10° ENE 04:00:20 10° ENE visible
30 May - 05:36:45 10° NNW 05:42:32 59° WSW 05:47:54 10° S daylight
30 May - 16:25:52 10° SSE 16:29:10 20° ESE 16:32:39 10° ENE daylight
30 May - 18:08:16 10° WSW 18:11:28 19° WNW 18:14:52 10° NNW daylight
31 May - 04:54:25 10° NNW 05:00:18 69° ENE 05:05:45 10° SSE visible
31 May - 17:24:54 10° SW 17:29:09 41° WNW 17:33:46 10° N daylight
01 Jun - 04:12:43 10° N 04:18:00 34° ENE 04:22:58 10° SE visible
01 Jun - 05:56:33 10° WNW 06:00:19 18° WSW 06:03:54 10° SSW daylight
01 Jun - 16:42:24 10° SSW 16:46:54 84° ESE 16:51:48 10° NNE daylight
02 Jun - 03:31:56 10° NNE 03:35:39 17° ENE 03:39:13 10° ESE visible
02 Jun - 05:12:51 10° NW 05:18:08 36° WSW 05:23:04 10° S visible
02 Jun - 16:00:36 10° S 16:04:43 35° ESE 16:09:08 10° NE daylight
02 Jun - 17:46:04 10° W 17:47:10 11° WNW 17:48:17 10° NW daylight
03 Jun - 04:30:04 10° NNW 04:35:56 74° WSW 04:41:21 10° SSE visible
03 Jun - 15:19:49 10° SE 15:22:33 16° ESE 15:25:24 10° ENE daylight
03 Jun - 17:01:05 10° WSW 17:04:48 24° WNW 17:08:45 10° NNW daylight
04 Jun - 03:47:55 10° N 03:53:40 55° ENE 03:59:00 10° SSE visible
04 Jun - 05:35:34 10° WSW 05:35:53 10° WSW 05:36:13 10° WSW visible
04 Jun - 16:18:03 10° SSW 16:22:29 54° WNW 16:27:19 10° N daylight
